Location: Peebles
(55.6412°N, 3.1714°W)
Time: 20:38:53
(UTC+01:00)

deb Kosmos-2123 - Pass Details

Date: 12 July 2022
Orbit: 942 x 985 km, 82.9° (Epoch: 17 August)

Event Time Altitude Azimuth Distance (km) Brightness Sun altitude
Exits shadow 02:15:05 - 228° (SW) 2,895 ? -11.4°
Reaches altitude 10° 02:15:35 10° 230° (SW) 2,733 ? -11.4°
Maximum altitude 02:21:16 35° 296° (WNW) 1,518 ? -11.2°
Drops below altitude 10° 02:26:58 10° 1° (N) 2,724 ? -11.0°
Sets 02:29:43 0° 11° (N) 3,668 ? -10.9°
